• In Hungary
  • List of Countries
  • For 7 days
  • Water Temperature
  • Satellite Maps
  • Weather Map
  • News
  • Weather Widgets
  • user-avatar
    Login

    Hourly Weather Canberra

    Today, 20 August, Sunday

    Time Temperature Precipitation Wind Pressure Humidity
    00:00 -1°C° 0 mm 2 mps 713 mmHg 75%
    01:00 -1°C° 0 mm 2 mps 713 mmHg 77%
    02:00 -1°C° 0 mm 2 mps 713 mmHg 78%
    03:00 -1°C° 0 mm 2 mps 713 mmHg 79%
    04:00 0°C° 0 mm 1 mps 713 mmHg 83%
    05:00 0°C° 0 mm 1 mps 713 mmHg 82%
    06:00 0°C° 0 mm 1 mps 713 mmHg 81%
    07:00 0°C° 0 mm 1 mps 714 mmHg 81%
    08:00 +4°C° 0 mm 1 mps 714 mmHg 68%
    09:00 +7°C° 0 mm 1 mps 714 mmHg 56%
    10:00 +11°C° 0 mm 1 mps 714 mmHg 44%
    11:00 +12°C° 0 mm 1 mps 714 mmHg 42%
    12:00 +13°C° 0 mm 1 mps 714 mmHg 39%
    13:00 +14°C° 0 mm 1 mps 713 mmHg 37%
    14:00 +14°C° 0 mm 1 mps 713 mmHg 40%
    15:00 +13°C° 0 mm 1 mps 712 mmHg 43%
    16:00 +13°C° 0 mm 2 mps 712 mmHg 46%
    17:00 +10°C° 0 mm 1 mps 712 mmHg 58%
    18:00 +7°C° 0 mm 1 mps 711 mmHg 69%
    19:00 +5°C° 0 mm 1 mps 711 mmHg 80%
    20:00 +4°C° 0 mm 1 mps 711 mmHg 84%
    21:00 +4°C° 0 mm 1 mps 711 mmHg 87%
    22:00 +2°C° 0 mm 0 mps 711 mmHg 91%
    23:00 +2°C° 0 mm 0 mps 711 mmHg 91%

    Tomorrow, 21 August, Monday

    Time Temperature Precipitation Wind Pressure Humidity
    00:00 +3°C° 0 mm 0 mps 711 mmHg 91%
    01:00 +3°C° 0 mm 0 mps 711 mmHg 91%
    02:00 +3°C° 0 mm 0 mps 711 mmHg 90%
    03:00 +4°C° 0 mm 1 mps 710 mmHg 89%
    04:00 +4°C° 0 mm 1 mps 710 mmHg 88%
    05:00 +4°C° 0 mm 1 mps 710 mmHg 85%
    06:00 +5°C° 0 mm 1 mps 710 mmHg 82%
    07:00 +5°C° 0 mm 1 mps 709 mmHg 79%
    08:00 +5°C° 0 mm 2 mps 709 mmHg 72%
    09:00 +7°C° 0 mm 2 mps 709 mmHg 65%
    10:00 +8°C° 0 mm 3 mps 709 mmHg 57%
    11:00 +9°C° 0.1 mm 3 mps 709 mmHg 56%
    12:00 +8°C° 0.1 mm 4 mps 709 mmHg 56%
    13:00 +8°C° 0.1 mm 4 mps 708 mmHg 55%
    14:00 +9°C° 0 mm 3 mps 708 mmHg 56%
    15:00 +9°C° 0 mm 3 mps 708 mmHg 58%
    16:00 +8°C° 0 mm 3 mps 708 mmHg 59%
    17:00 +7°C° 0.1 mm 2 mps 708 mmHg 66%
    18:00 +6°C° 0.1 mm 2 mps 709 mmHg 72%
    19:00 +5°C° 0.1 mm 2 mps 709 mmHg 79%
    20:00 +5°C° 0.1 mm 2 mps 709 mmHg 83%
    21:00 +4°C° 0.1 mm 2 mps 709 mmHg 86%
    22:00 +4°C° 0.1 mm 2 mps 709 mmHg 90%
    23:00 +4°C° 0 mm 2 mps 709 mmHg 90%

    Day after tomorrow, 22 August, Tuesday

    Time Temperature Precipitation Wind Pressure Humidity
    00:00 +4°C° 0 mm 1 mps 709 mmHg 91%
    01:00 +4°C° 0 mm 1 mps 708 mmHg 91%
    02:00 +4°C° 0 mm 1 mps 708 mmHg 91%
    03:00 +4°C° 0 mm 1 mps 708 mmHg 91%
    04:00 +3°C° 0 mm 1 mps 708 mmHg 91%
    05:00 +3°C° 0 mm 1 mps 708 mmHg 91%
    06:00 +3°C° 0 mm 1 mps 709 mmHg 90%
    07:00 +3°C° 0 mm 1 mps 709 mmHg 89%
    08:00 +7°C° 0 mm 1 mps 710 mmHg 77%
    09:00 +10°C° 0 mm 1 mps 710 mmHg 65%
    10:00 +13°C° 0 mm 0 mps 711 mmHg 52%
    11:00 +15°C° 0 mm 1 mps 710 mmHg 48%
    12:00 +16°C° 0 mm 1 mps 710 mmHg 44%
    13:00 +18°C° 0 mm 1 mps 710 mmHg 39%
    14:00 +16°C° 0 mm 2 mps 710 mmHg 42%
    15:00 +16°C° 0 mm 2 mps 710 mmHg 45%
    16:00 +16°C° 0 mm 2 mps 710 mmHg 48%
    17:00 +13°C° 0 mm 2 mps 710 mmHg 59%
    18:00 +10°C° 0 mm 1 mps 710 mmHg 70%
    19:00 +8°C° 0 mm 1 mps 711 mmHg 81%
    20:00 +7°C° 0 mm 1 mps 711 mmHg 84%
    21:00 +7°C° 0 mm 1 mps 711 mmHg 86%
    22:00 +5°C° 0 mm 0 mps 711 mmHg 88%
    23:00 +5°C° 0 mm 0 mps 711 mmHg 89%

    23 August, Wednesday

    Time Temperature Precipitation Wind Pressure Humidity
    00:00 +4°C° 0 mm 0 mps 711 mmHg 89%
    01:00 +4°C° 0 mm 0 mps 711 mmHg 90%
    02:00 +5°C° 0 mm 1 mps 711 mmHg 90%
    03:00 +5°C° 0 mm 1 mps 711 mmHg 90%
    04:00 +4°C° 0 mm 1 mps 710 mmHg 90%
    05:00 +4°C° 0 mm 1 mps 711 mmHg 90%
    06:00 +4°C° 0 mm 1 mps 711 mmHg 90%
    07:00 +4°C° 0 mm 1 mps 711 mmHg 90%
    08:00 +7°C° 0 mm 1 mps 711 mmHg 79%
    09:00 +9°C° 0 mm 2 mps 712 mmHg 68%
    10:00 +13°C° 0 mm 2 mps 712 mmHg 56%
    11:00 +13°C° 0 mm 3 mps 711 mmHg 53%
    12:00 +14°C° 0 mm 3 mps 711 mmHg 50%
    13:00 +15°C° 0 mm 4 mps 710 mmHg 46%
    14:00 +14°C° 0 mm 4 mps 710 mmHg 49%
    15:00 +14°C° 0 mm 4 mps 710 mmHg 52%
    16:00 +13°C° 0 mm 4 mps 710 mmHg 54%
    17:00 +11°C° 0 mm 4 mps 710 mmHg 64%
    18:00 +9°C° 0 mm 3 mps 710 mmHg 73%
    19:00 +7°C° 0 mm 3 mps 711 mmHg 83%
    20:00 +7°C° 0 mm 2 mps 711 mmHg 86%
    21:00 +6°C° 0 mm 2 mps 711 mmHg 88%
    22:00 +5°C° 0 mm 2 mps 712 mmHg 91%
    23:00 +5°C° 0 mm 2 mps 711 mmHg 92%

    24 August, Thursday

    Time Temperature Precipitation Wind Pressure Humidity
    00:00 +6°C° 0 mm 1 mps 711 mmHg 92%
    01:00 +5°C° 0 mm 1 mps 711 mmHg 92%
    02:00 +5°C° 0 mm 1 mps 711 mmHg 93%
    03:00 +5°C° 0 mm 1 mps 711 mmHg 93%
    04:00 +4°C° 0 mm 1 mps 711 mmHg 94%
    05:00 +4°C° 0 mm 1 mps 712 mmHg 94%
    06:00 +4°C° 0 mm 1 mps 712 mmHg 94%
    07:00 +4°C° 0 mm 1 mps 713 mmHg 94%
    08:00 +6°C° 0 mm 1 mps 713 mmHg 84%
    09:00 +9°C° 0 mm 1 mps 714 mmHg 74%
    10:00 +11°C° 0 mm 1 mps 714 mmHg 64%
    11:00 +12°C° 0 mm 1 mps 714 mmHg 59%
    12:00 +13°C° 0 mm 1 mps 713 mmHg 54%
    13:00 +14°C° 0 mm 1 mps 713 mmHg 49%
    14:00 +13°C° 0.1 mm 1 mps 713 mmHg 50%
    15:00 +13°C° 0.1 mm 1 mps 713 mmHg 51%
    16:00 +12°C° 0.1 mm 1 mps 713 mmHg 52%
    17:00 +10°C° 0.1 mm 1 mps 713 mmHg 61%
    18:00 +8°C° 0.1 mm 1 mps 713 mmHg 70%
    19:00 +6°C° 0.1 mm 1 mps 714 mmHg 79%
    20:00 +5°C° 0 mm 1 mps 714 mmHg 82%
    21:00 +5°C° 0 mm 1 mps 714 mmHg 85%
    22:00 +4°C° 0 mm 1 mps 714 mmHg 88%
    23:00 +3°C° 0 mm 1 mps 714 mmHg 88%

    25 August, Friday

    Time Temperature Precipitation Wind Pressure Humidity
    00:00 +3°C° 0 mm 1 mps 714 mmHg 88%
    01:00 +3°C° 0 mm 1 mps 714 mmHg 88%
    02:00 +3°C° 0 mm 1 mps 714 mmHg 88%
    03:00 +2°C° 0 mm 1 mps 714 mmHg 87%
    04:00 +2°C° 0 mm 1 mps 714 mmHg 86%
    05:00 +2°C° 0 mm 1 mps 714 mmHg 84%
    06:00 +2°C° 0 mm 1 mps 714 mmHg 82%
    07:00 +2°C° 0 mm 1 mps 714 mmHg 81%
    08:00 +6°C° 0 mm 1 mps 715 mmHg 69%
    09:00 +9°C° 0 mm 0 mps 715 mmHg 57%
    10:00 +12°C° 0 mm 0 mps 715 mmHg 46%
    11:00 +14°C° 0 mm 1 mps 715 mmHg 43%
    12:00 +15°C° 0 mm 1 mps 714 mmHg 40%
    13:00 +15°C° 0 mm 2 mps 713 mmHg 38%
    14:00 +15°C° 0 mm 2 mps 713 mmHg 41%
    15:00 +14°C° 0 mm 2 mps 713 mmHg 45%
    16:00 +14°C° 0 mm 2 mps 713 mmHg 48%
    17:00 +10°C° 0 mm 2 mps 713 mmHg 61%
    18:00 +8°C° 0 mm 2 mps 713 mmHg 73%
    19:00 +7°C° 0 mm 1 mps 713 mmHg 85%
    20:00 +6°C° 0 mm 1 mps 713 mmHg 87%
    21:00 +5°C° 0 mm 1 mps 713 mmHg 90%
    22:00 +5°C° 0 mm 1 mps 714 mmHg 92%
    23:00 +4°C° 0 mm 1 mps 713 mmHg 93%
    Show more